Simultaneous Nadir Overpasses (SNOs) Predictions

Prediction of SNOs between METOP-C and LANDSAT-8 Satellite Orbit:

Table of predicted SNOs for the next 14.0 days since TLE Epoch: 8/24/2019
Index Date (METOP-C) Time (METOP-C) Lat,Lon (METOP-C) SZA (METOP-C ) Date (LANDSAT-8) Time (LANDSAT-8) Lat,Lon (LANDSAT-8) SZA (LANDSAT-8 ) Distance(km) Time Diff (sec)
1 08/24/2019 23:22:50 -81.14, 49.50 107.73 08/24/2019 23:23:21 -81.13, 49.36 107.74 2.58 31
2 08/25/2019 00:13:30 81.15,-142.71 72.34 08/25/2019 00:12:46 81.16,-142.54 72.34 2.97 44
3 08/27/2019 18:57:12 -81.13, 115.69 106.77 08/27/2019 18:57:36 -81.13, 115.77 106.75 1.35 24
4 08/27/2019 19:47:51 81.16, -76.21 73.35 08/27/2019 19:47:01 81.16, -76.16 73.33 0.74 50
5 08/30/2019 14:31:33 -81.15,-177.36 105.69 08/30/2019 14:31:51 -81.15,-177.48 105.69 2.04 18
6 08/30/2019 15:22:12 81.17, -9.32 74.42 08/30/2019 15:21:16 81.17, -9.44 74.38 2.02 56
7 09/02/2019 10:05:56 -81.14,-111.17 104.68 09/02/2019 10:06:07 -81.14,-111.12 104.67 0.86 11
8 09/02/2019 10:56:35 81.16, 56.80 75.42 09/02/2019 10:55:32 81.17, 56.90 75.40 1.63 63
9 09/05/2019 05:40:18 -81.14, -44.97 103.65 09/05/2019 05:40:22 -81.14, -44.78 103.63 3.32 4




NCC Satellite Simultaneous Nadir Overpasses (SNOs) Prediction Service
